Time,TemperatureF,DewpointF,PressureIn,WindDirection,WindDirectionDegrees,WindSpeedMPH,WindSpeedGustMPH,Humidity,HourlyPrecipIn,Conditions,Clouds,dailyrainin,SoftwareType,DateUTC
2013-06-10 00:21:00,65.5,64.9,29.84,North,-999,-999.0,-999.0,98,0.12,,,0.06,tws,2013-06-10 04:21:00,
2013-06-10 00:26:00,65.4,64.9,29.84,North,-999,-999.0,-999.0,98,0.12,,,0.07,tws,2013-06-10 04:26:00,
2013-06-10 00:31:00,65.4,64.9,29.84,North,-999,-999.0,-999.0,98,0.24,,,0.09,tws,2013-06-10 04:31:00,
2013-06-10 00:36:00,65.5,65.1,29.84,North,-999,-999.0,-999.0,98,0.12,,,0.10,tws,2013-06-10 04:36:00,
2013-06-10 00:41:00,65.5,65.0,29.84,North,-999,-999.0,-999.0,98,0.12,,,0.11,tws,2013-06-10 04:41:00,
2013-06-10 00:46:00,65.5,65.0,29.83,North,-999,-999.0,-999.0,98,0.12,,,0.12,tws,2013-06-10 04:46:00,
2013-06-10 00:51:00,65.5,65.0,29.83,North,-999,-999.0,-999.0,98,0.24,,,0.14,tws,2013-06-10 04:51:00,
2013-06-10 00:56:00,65.5,65.0,29.83,North,-999,-999.0,-999.0,98,0.12,,,0.15,tws,2013-06-10 04:56:00,
2013-06-10 01:01:00,65.5,65.0,29.83,North,-999,-999.0,-999.0,98,0.12,,,0.16,tws,2013-06-10 05:01:00,
2013-06-10 01:06:00,65.4,64.9,29.83,North,-999,-999.0,-999.0,98,0.12,,,0.17,tws,2013-06-10 05:06:00,
2013-06-10 01:11:00,65.4,64.8,29.83,North,-999,-999.0,-999.0,97,0.12,,,0.18,tws,2013-06-10 05:11:00,
2013-06-10 01:16:00,65.5,65.0,29.83,North,-999,-999.0,-999.0,98,0.12,,,0.19,tws,2013-06-10 05:16:00,
2013-06-10 01:21:00,65.5,65.0,29.82,North,-999,-999.0,-999.0,98,0.12,,,0.20,tws,2013-06-10 05:21:00,
2013-06-10 01:26:00,65.5,65.1,29.82,North,-999,-999.0,-999.0,98,0.12,,,0.21,tws,2013-06-10 05:26:00,
2013-06-10 01:31:00,65.5,65.0,29.82,North,-999,-999.0,-999.0,98,0.12,,,0.22,tws,2013-06-10 05:31:00,
2013-06-10 01:36:00,65.6,65.1,29.81,North,-999,-999.0,-999.0,98,0.12,,,0.23,tws,2013-06-10 05:36:00,
2013-06-10 01:41:00,65.6,65.1,29.81,North,-999,-999.0,-999.0,98,0.12,,,0.24,tws,2013-06-10 05:41:00,
2013-06-10 01:46:00,65.6,65.1,29.81,North,-999,-999.0,-999.0,98,0.12,,,0.25,tws,2013-06-10 05:46:00,
2013-06-10 01:51:00,65.6,65.1,29.81,North,-999,-999.0,-999.0,98,0.12,,,0.26,tws,2013-06-10 05:51:00,
2013-06-10 02:01:00,65.6,65.1,29.80,North,-999,-999.0,-999.0,98,0.12,,,0.28,tws,2013-06-10 06:01:00,
2013-06-10 02:06:00,65.6,65.1,29.80,North,-999,-999.0,-999.0,98,0.12,,,0.29,tws,2013-06-10 06:06:00,
2013-06-10 02:16:00,65.6,65.1,29.79,North,-999,-999.0,-999.0,98,0.24,,,0.32,tws,2013-06-10 06:16:00,
2013-06-10 02:21:00,65.6,65.1,29.79,North,-999,-999.0,-999.0,98,0.12,,,0.33,tws,2013-06-10 06:21:00,
2013-06-10 02:26:00,65.6,65.0,29.79,North,-999,-999.0,-999.0,98,0.12,,,0.34,tws,2013-06-10 06:26:00,
2013-06-10 02:31:00,65.6,65.1,29.79,North,-999,-999.0,-999.0,98,0.24,,,0.36,tws,2013-06-10 06:31:00,
2013-06-10 02:41:00,65.6,65.1,29.79,North,-999,-999.0,-999.0,98,0.24,,,0.39,tws,2013-06-10 06:41:00,
2013-06-10 02:46:00,65.6,65.1,29.79,North,-999,-999.0,-999.0,98,0.12,,,0.40,tws,2013-06-10 06:46:00,
2013-06-10 02:51:00,65.6,65.1,29.79,North,-999,-999.0,-999.0,98,0.24,,,0.42,tws,2013-06-10 06:51:00,
2013-06-10 02:56:00,65.6,65.0,29.79,North,-999,-999.0,-999.0,97,0.12,,,0.43,tws,2013-06-10 06:56:00,
2013-06-10 03:01:00,65.6,65.1,29.79,North,-999,-999.0,-999.0,98,0.12,,,0.44,tws,2013-06-10 07:01:00,
2013-06-10 03:06:00,65.5,64.9,29.79,North,-999,-999.0,-999.0,97,0.24,,,0.46,tws,2013-06-10 07:06:00,
2013-06-10 03:11:00,65.5,65.0,29.78,North,-999,-999.0,-999.0,98,0.12,,,0.47,tws,2013-06-10 07:11:00,
2013-06-10 03:16:00,65.5,64.8,29.78,North,-999,-999.0,-999.0,97,0.12,,,0.48,tws,2013-06-10 07:16:00,
2013-06-10 03:21:00,65.4,64.8,29.78,North,-999,-999.0,-999.0,97,0.24,,,0.50,tws,2013-06-10 07:21:00,
2013-06-10 03:26:00,65.3,64.7,29.78,North,-999,-999.0,-999.0,98,0.12,,,0.51,tws,2013-06-10 07:26:00,
2013-06-10 03:31:00,65.2,64.6,29.78,North,-999,-999.0,-999.0,97,0.12,,,0.52,tws,2013-06-10 07:31:00,
2013-06-10 03:36:00,65.2,64.6,29.78,North,-999,-999.0,-999.0,97,0.24,,,0.54,tws,2013-06-10 07:36:00,
2013-06-10 03:41:00,65.2,64.6,29.78,North,-999,-999.0,-999.0,97,0.12,,,0.55,tws,2013-06-10 07:41:00,
2013-06-10 03:46:00,65.2,64.7,29.78,North,-999,-999.0,-999.0,98,0.12,,,0.56,tws,2013-06-10 07:46:00,
2013-06-10 03:51:00,65.2,64.6,29.78,North,-999,-999.0,-999.0,97,0.12,,,0.57,tws,2013-06-10 07:51:00,
2013-06-10 03:56:00,65.3,64.7,29.78,North,-999,-999.0,-999.0,98,0.24,,,0.59,tws,2013-06-10 07:56:00,
2013-06-10 04:01:00,65.3,64.7,29.77,North,-999,-999.0,-999.0,97,0.12,,,0.60,tws,2013-06-10 08:01:00,
2013-06-10 04:06:00,65.2,64.6,29.77,North,-999,-999.0,-999.0,97,0.12,,,0.61,tws,2013-06-10 08:06:00,
2013-06-10 04:11:00,65.1,64.5,29.77,North,-999,-999.0,-999.0,97,0.12,,,0.62,tws,2013-06-10 08:11:00,
2013-06-10 04:21:00,65.2,64.6,29.77,North,-999,-999.0,-999.0,98,0.12,,,0.64,tws,2013-06-10 08:21:00,
2013-06-10 04:26:00,65.1,64.5,29.77,North,-999,-999.0,-999.0,97,0.12,,,0.65,tws,2013-06-10 08:26:00,
2013-06-10 04:31:00,65.2,64.6,29.77,North,-999,-999.0,-999.0,98,0.12,,,0.66,tws,2013-06-10 08:31:00,
2013-06-10 04:36:00,65.2,64.6,29.77,North,-999,-999.0,-999.0,98,0.12,,,0.67,tws,2013-06-10 08:36:00,
2013-06-10 04:41:00,65.2,64.6,29.77,North,-999,-999.0,-999.0,97,0.12,,,0.68,tws,2013-06-10 08:41:00,
2013-06-10 04:51:00,65.2,64.6,29.77,North,-999,-999.0,-999.0,97,0.12,,,0.70,tws,2013-06-10 08:51:00,
2013-06-10 04:56:00,65.1,64.5,29.77,North,-999,-999.0,-999.0,97,0.12,,,0.71,tws,2013-06-10 08:56:00,
2013-06-10 05:01:00,65.0,64.4,29.77,North,-999,-999.0,-999.0,97,0.12,,,0.72,tws,2013-06-10 09:01:00,
2013-06-10 05:06:00,65.0,64.4,29.77,North,-999,-999.0,-999.0,97,0.12,,,0.73,tws,2013-06-10 09:06:00,
2013-06-10 05:11:00,64.9,64.4,29.77,North,-999,-999.0,-999.0,98,0.12,,,0.74,tws,2013-06-10 09:11:00,
2013-06-10 05:16:00,64.8,64.2,29.77,North,-999,-999.0,-999.0,98,0.12,,,0.75,tws,2013-06-10 09:16:00,
2013-06-10 05:21:00,64.6,64.1,29.77,North,-999,-999.0,-999.0,97,0.12,,,0.76,tws,2013-06-10 09:21:00,
2013-06-10 05:26:00,64.6,64.1,29.77,North,-999,-999.0,-999.0,97,0.00,,,0.76,tws,2013-06-10 09:26:00,
2013-06-10 05:32:00,64.6,64.1,29.77,North,-999,-999.0,-999.0,98,0.12,,,0.77,tws,2013-06-10 09:32:00,
2013-06-10 05:41:00,64.5,63.8,29.77,North,-999,-999.0,-999.0,97,0.12,,,0.79,tws,2013-06-10 09:41:00,
2013-06-10 05:52:00,64.3,63.7,29.77,North,-999,-999.0,-999.0,98,0.12,,,0.80,tws,2013-06-10 09:52:00,
2013-06-10 06:01:00,64.4,63.8,29.77,North,-999,-999.0,-999.0,98,0.12,,,0.82,tws,2013-06-10 10:01:00,
2013-06-10 06:06:00,64.4,63.8,29.77,North,-999,-999.0,-999.0,98,0.00,,,0.82,tws,2013-06-10 10:06:00,
2013-06-10 06:11:00,64.4,63.8,29.77,North,-999,-999.0,-999.0,97,0.12,,,0.83,tws,2013-06-10 10:11:00,
2013-06-10 06:16:00,64.4,63.8,29.77,North,-999,-999.0,-999.0,97,0.12,,,0.84,tws,2013-06-10 10:16:00,
2013-06-10 06:21:00,64.4,63.8,29.77,North,-999,-999.0,-999.0,98,0.00,,,0.84,tws,2013-06-10 10:21:00,
2013-06-10 06:26:00,64.4,63.7,29.77,North,-999,-999.0,-999.0,97,0.12,,,0.85,tws,2013-06-10 10:26:00,
2013-06-10 06:31:00,64.4,63.7,29.77,North,-999,-999.0,-999.0,97,0.00,,,0.85,tws,2013-06-10 10:31:00,
2013-06-10 06:36:00,64.4,63.8,29.77,North,-999,-999.0,-999.0,98,0.12,,,0.86,tws,2013-06-10 10:36:00,
2013-06-10 06:41:00,64.4,63.8,29.77,North,-999,-999.0,-999.0,97,0.12,,,0.87,tws,2013-06-10 10:41:00,
2013-06-10 06:46:00,64.4,63.7,29.77,North,-999,-999.0,-999.0,97,0.00,,,0.87,tws,2013-06-10 10:46:00,
2013-06-10 06:51:00,64.4,63.8,29.77,North,-999,-999.0,-999.0,97,0.00,,,0.87,tws,2013-06-10 10:51:00,
2013-06-10 06:56:00,64.4,63.8,29.78,North,-999,-999.0,-999.0,98,0.00,,,0.87,tws,2013-06-10 10:56:00,
2013-06-10 07:01:00,64.4,63.8,29.77,North,-999,-999.0,-999.0,97,0.12,,,0.88,tws,2013-06-10 11:01:00,
2013-06-10 07:06:00,64.4,63.7,29.78,North,-999,-999.0,-999.0,97,0.00,,,0.88,tws,2013-06-10 11:06:00,
2013-06-10 07:11:00,64.4,63.8,29.78,North,-999,-999.0,-999.0,97,0.00,,,0.88,tws,2013-06-10 11:11:00,
2013-06-10 07:16:00,64.3,63.7,29.78,North,-999,-999.0,-999.0,97,0.00,,,0.88,tws,2013-06-10 11:16:00,
2013-06-10 07:21:00,64.3,63.7,29.78,North,-999,-999.0,-999.0,97,0.00,,,0.88,tws,2013-06-10 11:21:00,
2013-06-10 07:26:00,64.4,63.8,29.78,North,-999,-999.0,-999.0,97,0.00,,,0.88,tws,2013-06-10 11:26:00,
2013-06-10 07:31:00,64.4,63.8,29.78,North,-999,-999.0,-999.0,97,0.00,,,0.88,tws,2013-06-10 11:31:00,
2013-06-10 07:41:00,64.5,63.9,29.78,North,-999,-999.0,-999.0,97,0.00,,,0.88,tws,2013-06-10 11:41:00,
2013-06-10 07:51:00,64.5,63.9,29.78,North,-999,-999.0,-999.0,97,0.00,,,0.88,tws,2013-06-10 11:51:00,
2013-06-10 07:56:00,64.5,63.9,29.78,North,-999,-999.0,-999.0,97,0.00,,,0.88,tws,2013-06-10 11:56:00,
2013-06-10 08:01:00,64.6,63.9,29.78,North,-999,-999.0,-999.0,97,0.00,,,0.88,tws,2013-06-10 12:01:00,
2013-06-10 08:06:00,64.7,64.0,29.78,North,-999,-999.0,-999.0,97,0.00,,,0.88,tws,2013-06-10 12:06:00,
2013-06-10 08:17:00,64.9,64.2,29.78,North,-999,-999.0,-999.0,97,0.00,,,0.88,tws,2013-06-10 12:17:00,
2013-06-10 08:26:00,65.2,64.4,29.78,North,-999,-999.0,-999.0,97,0.00,,,0.88,tws,2013-06-10 12:26:00,
2013-06-10 08:31:00,65.3,64.5,29.78,North,-999,-999.0,-999.0,97,0.00,,,0.88,tws,2013-06-10 12:31:00,
2013-06-10 08:36:00,65.4,64.6,29.78,North,-999,-999.0,-999.0,97,0.00,,,0.88,tws,2013-06-10 12:36:00,
2013-06-10 08:41:00,65.5,64.7,29.78,North,-999,-999.0,-999.0,97,0.00,,,0.88,tws,2013-06-10 12:41:00,
2013-06-10 08:46:00,65.5,64.8,29.78,North,-999,-999.0,-999.0,97,0.00,,,0.88,tws,2013-06-10 12:46:00,
2013-06-10 08:52:00,65.5,64.8,29.78,North,-999,-999.0,-999.0,97,0.00,,,0.88,tws,2013-06-10 12:52:00,
2013-06-10 09:01:00,65.6,64.8,29.79,North,-999,-999.0,-999.0,97,0.00,,,0.88,tws,2013-06-10 13:01:00,
2013-06-10 09:06:00,65.6,64.8,29.78,North,-999,-999.0,-999.0,97,0.00,,,0.88,tws,2013-06-10 13:06:00,
2013-06-10 09:11:00,65.7,64.8,29.78,North,-999,-999.0,-999.0,96,0.00,,,0.88,tws,2013-06-10 13:11:00,
2013-06-10 09:21:00,65.9,65.1,29.78,North,-999,-999.0,-999.0,97,0.00,,,0.88,tws,2013-06-10 13:21:00,
2013-06-10 09:32:00,66.3,65.4,29.78,North,-999,-999.0,-999.0,96,0.00,,,0.88,tws,2013-06-10 13:32:00,
2013-06-10 09:41:00,66.6,65.8,29.78,North,-999,-999.0,-999.0,97,0.00,,,0.88,tws,2013-06-10 13:41:00,
2013-06-10 09:46:00,66.8,65.8,29.78,North,-999,-999.0,-999.0,96,0.00,,,0.88,tws,2013-06-10 13:46:00,
2013-06-10 09:56:00,67.0,66.0,29.77,North,-999,-999.0,-999.0,96,0.00,,,0.88,tws,2013-06-10 13:56:00,
2013-06-10 10:01:00,67.3,66.4,29.77,North,-999,-999.0,-999.0,96,0.00,,,0.88,tws,2013-06-10 14:01:00,
2013-06-10 10:06:00,67.3,66.4,29.77,North,-999,-999.0,-999.0,96,0.00,,,0.88,tws,2013-06-10 14:06:00,
2013-06-10 10:12:00,67.4,66.5,29.77,North,-999,-999.0,-999.0,96,0.00,,,0.88,tws,2013-06-10 14:12:00,
2013-06-10 10:21:00,67.6,66.6,29.77,North,-999,-999.0,-999.0,96,0.00,,,0.88,tws,2013-06-10 14:21:00,
2013-06-10 10:26:00,67.7,66.7,29.77,North,-999,-999.0,-999.0,96,0.00,,,0.88,tws,2013-06-10 14:26:00,
2013-06-10 10:31:00,67.9,67.0,29.77,North,-999,-999.0,-999.0,96,0.00,,,0.88,tws,2013-06-10 14:31:00,
2013-06-10 10:41:00,68.0,67.0,29.77,North,-999,-999.0,-999.0,96,0.00,,,0.88,tws,2013-06-10 14:41:00,
2013-06-10 10:46:00,68.1,67.1,29.77,North,-999,-999.0,-999.0,96,0.00,,,0.88,tws,2013-06-10 14:46:00,
2013-06-10 10:51:00,68.0,67.0,29.77,North,-999,-999.0,-999.0,96,0.00,,,0.88,tws,2013-06-10 14:51:00,
2013-06-10 10:56:00,68.0,67.0,29.77,North,-999,-999.0,-999.0,96,0.00,,,0.88,tws,2013-06-10 14:56:00,
2013-06-10 11:01:00,68.1,67.1,29.76,North,-999,-999.0,-999.0,96,0.00,,,0.88,tws,2013-06-10 15:01:00,
2013-06-10 11:06:00,68.2,67.2,29.76,North,-999,-999.0,-999.0,96,0.00,,,0.88,tws,2013-06-10 15:06:00,
2013-06-10 11:11:00,68.5,67.4,29.77,North,-999,-999.0,-999.0,96,0.00,,,0.88,tws,2013-06-10 15:11:00,
2013-06-10 11:21:00,68.8,67.8,29.77,North,-999,-999.0,-999.0,96,0.00,,,0.88,tws,2013-06-10 15:21:00,
2013-06-10 11:26:00,69.1,68.0,29.76,North,-999,-999.0,-999.0,96,0.00,,,0.88,tws,2013-06-10 15:26:00,
2013-06-10 11:36:00,69.6,68.4,29.76,North,-999,-999.0,-999.0,96,0.00,,,0.88,tws,2013-06-10 15:36:00,
2013-06-10 11:41:00,69.5,68.4,29.76,North,-999,-999.0,-999.0,96,0.00,,,0.88,tws,2013-06-10 15:41:00,
2013-06-10 11:46:00,69.5,68.4,29.76,North,-999,-999.0,-999.0,96,0.00,,,0.88,tws,2013-06-10 15:46:00,
2013-06-10 11:56:00,69.9,68.7,29.76,North,-999,-999.0,-999.0,95,0.00,,,0.88,tws,2013-06-10 15:56:00,
2013-06-10 12:01:00,70.1,68.9,29.76,North,-999,-999.0,-999.0,95,0.00,,,0.88,tws,2013-06-10 16:01:00,
2013-06-10 12:06:00,70.2,68.9,29.76,North,-999,-999.0,-999.0,95,0.00,,,0.88,tws,2013-06-10 16:06:00,
2013-06-10 12:16:00,70.3,69.0,29.76,North,-999,-999.0,-999.0,95,0.00,,,0.88,tws,2013-06-10 16:16:00,
2013-06-10 12:21:00,70.4,69.1,29.76,North,-999,-999.0,-999.0,95,0.00,,,0.88,tws,2013-06-10 16:21:00,
2013-06-10 12:26:00,70.4,69.1,29.76,North,-999,-999.0,-999.0,95,0.00,,,0.88,tws,2013-06-10 16:26:00,
2013-06-10 12:31:00,70.0,68.7,29.76,North,-999,-999.0,-999.0,95,0.00,,,0.88,tws,2013-06-10 16:31:00,
2013-06-10 12:36:00,69.7,68.4,29.75,North,-999,-999.0,-999.0,95,0.00,,,0.88,tws,2013-06-10 16:36:00,
2013-06-10 12:41:00,69.4,68.2,29.75,North,-999,-999.0,-999.0,95,0.00,,,0.88,tws,2013-06-10 16:41:00,
2013-06-10 12:46:00,69.0,67.8,29.76,North,-999,-999.0,-999.0,95,0.12,,,0.89,tws,2013-06-10 16:46:00,
2013-06-10 12:51:00,68.5,67.4,29.77,North,-999,-999.0,-999.0,96,0.12,,,0.90,tws,2013-06-10 16:51:00,
2013-06-10 12:56:00,67.5,66.5,29.77,North,-999,-999.0,-999.0,96,0.24,,,0.92,tws,2013-06-10 16:56:00,
2013-06-10 13:01:00,66.6,65.6,29.77,North,-999,-999.0,-999.0,96,0.12,,,0.93,tws,2013-06-10 17:01:00,
2013-06-10 13:06:00,65.7,64.8,29.78,North,-999,-999.0,-999.0,96,0.24,,,0.95,tws,2013-06-10 17:06:00,
2013-06-10 13:11:00,64.1,63.1,29.78,North,-999,-999.0,-999.0,96,0.24,,,0.97,tws,2013-06-10 17:11:00,
2013-06-10 13:21:00,62.2,61.4,29.76,North,-999,-999.0,-999.0,97,0.12,,,1.00,tws,2013-06-10 17:21:00,
2013-06-10 13:26:00,62.1,61.4,29.76,North,-999,-999.0,-999.0,97,0.12,,,1.01,tws,2013-06-10 17:26:00,
2013-06-10 13:31:00,62.3,61.6,29.76,North,-999,-999.0,-999.0,97,0.24,,,1.03,tws,2013-06-10 17:31:00,
2013-06-10 13:36:00,62.7,62.0,29.75,North,-999,-999.0,-999.0,97,0.12,,,1.04,tws,2013-06-10 17:36:00,
2013-06-10 13:41:00,63.1,62.4,29.74,North,-999,-999.0,-999.0,97,0.12,,,1.05,tws,2013-06-10 17:41:00,
2013-06-10 13:46:00,63.4,62.7,29.74,North,-999,-999.0,-999.0,97,0.24,,,1.07,tws,2013-06-10 17:46:00,
2013-06-10 13:51:00,63.9,63.1,29.73,North,-999,-999.0,-999.0,97,0.12,,,1.08,tws,2013-06-10 17:51:00,
2013-06-10 13:56:00,64.4,63.6,29.73,North,-999,-999.0,-999.0,97,0.12,,,1.09,tws,2013-06-10 17:56:00,
2013-06-10 14:01:00,64.7,63.9,29.72,North,-999,-999.0,-999.0,97,0.12,,,1.10,tws,2013-06-10 18:01:00,
2013-06-10 14:06:00,64.7,63.9,29.73,North,-999,-999.0,-999.0,97,0.12,,,1.11,tws,2013-06-10 18:06:00,
2013-06-10 14:11:00,64.7,63.9,29.73,North,-999,-999.0,-999.0,97,0.12,,,1.12,tws,2013-06-10 18:11:00,
2013-06-10 14:16:00,64.9,64.1,29.72,North,-999,-999.0,-999.0,97,0.00,,,1.12,tws,2013-06-10 18:16:00,
2013-06-10 14:21:00,65.3,64.5,29.72,North,-999,-999.0,-999.0,97,0.12,,,1.13,tws,2013-06-10 18:21:00,
2013-06-10 14:26:00,65.6,64.8,29.73,North,-999,-999.0,-999.0,97,0.00,,,1.13,tws,2013-06-10 18:26:00,
2013-06-10 14:31:00,66.0,65.1,29.73,North,-999,-999.0,-999.0,96,0.00,,,1.13,tws,2013-06-10 18:31:00,
2013-06-10 14:41:00,66.5,65.6,29.73,North,-999,-999.0,-999.0,96,0.00,,,1.13,tws,2013-06-10 18:41:00,
2013-06-10 14:46:00,66.7,65.9,29.73,North,-999,-999.0,-999.0,97,0.00,,,1.13,tws,2013-06-10 18:46:00,
2013-06-10 14:51:00,66.8,65.7,29.72,North,-999,-999.0,-999.0,96,0.00,,,1.13,tws,2013-06-10 18:51:00,
2013-06-10 14:57:00,67.0,65.9,29.72,North,-999,-999.0,-999.0,96,0.00,,,1.13,tws,2013-06-10 18:57:00,
2013-06-10 15:06:00,67.6,66.6,29.72,North,-999,-999.0,-999.0,96,0.00,,,1.13,tws,2013-06-10 19:06:00,
2013-06-10 15:11:00,68.0,66.9,29.72,North,-999,-999.0,-999.0,96,0.00,,,1.13,tws,2013-06-10 19:11:00,
2013-06-10 15:16:00,68.4,67.3,29.72,North,-999,-999.0,-999.0,96,0.00,,,1.13,tws,2013-06-10 19:16:00,
2013-06-10 15:21:00,68.9,67.8,29.72,North,-999,-999.0,-999.0,95,0.00,,,1.13,tws,2013-06-10 19:21:00,
2013-06-10 15:26:00,69.2,67.8,29.72,North,-999,-999.0,-999.0,95,0.00,,,1.13,tws,2013-06-10 19:26:00,
2013-06-10 15:31:00,69.4,67.7,29.72,North,-999,-999.0,-999.0,93,0.00,,,1.13,tws,2013-06-10 19:31:00,
2013-06-10 15:36:00,69.8,68.3,29.72,North,-999,-999.0,-999.0,94,0.00,,,1.13,tws,2013-06-10 19:36:00,
2013-06-10 15:46:00,70.4,68.4,29.72,North,-999,-999.0,-999.0,93,0.00,,,1.13,tws,2013-06-10 19:46:00,
2013-06-10 15:51:00,70.5,68.5,29.72,North,-999,-999.0,-999.0,93,0.00,,,1.13,tws,2013-06-10 19:51:00,
2013-06-10 15:56:00,70.5,68.1,29.71,North,-999,-999.0,-999.0,92,0.00,,,1.13,tws,2013-06-10 19:56:00,
2013-06-10 16:02:00,70.8,68.4,29.71,North,-999,-999.0,-999.0,92,0.00,,,1.13,tws,2013-06-10 20:02:00,
2013-06-10 16:07:00,71.2,68.5,29.70,North,-999,-999.0,-999.0,91,0.00,,,1.13,tws,2013-06-10 20:07:00,
2013-06-10 16:16:00,71.7,69.1,29.70,North,-999,-999.0,-999.0,91,0.00,,,1.13,tws,2013-06-10 20:16:00,
2013-06-10 16:21:00,72.0,68.5,29.70,North,-999,-999.0,-999.0,88,0.00,,,1.13,tws,2013-06-10 20:21:00,
2013-06-10 16:31:00,72.5,68.7,29.70,North,-999,-999.0,-999.0,87,0.00,,,1.13,tws,2013-06-10 20:31:00,
2013-06-10 16:41:00,72.2,69.4,29.70,North,-999,-999.0,-999.0,90,0.00,,,1.13,tws,2013-06-10 20:41:00,
2013-06-10 16:51:00,72.1,68.8,29.70,North,-999,-999.0,-999.0,89,0.00,,,1.13,tws,2013-06-10 20:51:00,
2013-06-10 16:56:00,72.2,69.2,29.69,North,-999,-999.0,-999.0,90,0.00,,,1.13,tws,2013-06-10 20:56:00,
2013-06-10 17:01:00,72.7,69.4,29.70,North,-999,-999.0,-999.0,89,0.00,,,1.13,tws,2013-06-10 21:01:00,
2013-06-10 17:06:00,72.9,69.2,29.70,North,-999,-999.0,-999.0,88,0.00,,,1.13,tws,2013-06-10 21:06:00,
2013-06-10 17:11:00,73.0,68.9,29.70,North,-999,-999.0,-999.0,86,0.00,,,1.13,tws,2013-06-10 21:11:00,
2013-06-10 17:16:00,72.9,68.0,29.69,North,-999,-999.0,-999.0,84,0.00,,,1.13,tws,2013-06-10 21:16:00,
2013-06-10 17:21:00,72.8,68.0,29.69,North,-999,-999.0,-999.0,84,0.00,,,1.13,tws,2013-06-10 21:21:00,
2013-06-10 17:26:00,72.6,68.1,29.70,North,-999,-999.0,-999.0,85,0.00,,,1.13,tws,2013-06-10 21:26:00,
2013-06-10 17:32:00,72.6,68.4,29.70,North,-999,-999.0,-999.0,86,0.00,,,1.13,tws,2013-06-10 21:32:00,
2013-06-10 17:41:00,72.3,67.9,29.70,North,-999,-999.0,-999.0,86,0.00,,,1.13,tws,2013-06-10 21:41:00,
2013-06-10 17:46:00,72.2,67.0,29.69,North,-999,-999.0,-999.0,83,0.00,,,1.13,tws,2013-06-10 21:46:00,
2013-06-10 17:57:00,73.0,67.8,29.70,North,-999,-999.0,-999.0,83,0.00,,,1.13,tws,2013-06-10 21:57:00,
2013-06-10 18:06:00,73.6,65.5,29.70,North,-999,-999.0,-999.0,75,0.00,,,1.13,tws,2013-06-10 22:06:00,
2013-06-10 18:11:00,74.0,65.9,29.70,North,-999,-999.0,-999.0,75,0.00,,,1.13,tws,2013-06-10 22:11:00,
2013-06-10 18:16:00,74.2,65.9,29.70,North,-999,-999.0,-999.0,75,0.00,,,1.13,tws,2013-06-10 22:16:00,
2013-06-10 18:26:00,74.1,65.7,29.70,North,-999,-999.0,-999.0,74,0.00,,,1.13,tws,2013-06-10 22:26:00,
2013-06-10 18:31:00,73.7,65.0,29.70,North,-999,-999.0,-999.0,73,0.00,,,1.13,tws,2013-06-10 22:31:00,
2013-06-10 18:36:00,73.3,65.4,29.70,North,-999,-999.0,-999.0,75,0.00,,,1.13,tws,2013-06-10 22:36:00,
2013-06-10 18:41:00,73.0,65.6,29.70,North,-999,-999.0,-999.0,77,0.00,,,1.13,tws,2013-06-10 22:41:00,
2013-06-10 18:46:00,73.1,66.1,29.70,North,-999,-999.0,-999.0,78,0.00,,,1.13,tws,2013-06-10 22:46:00,
2013-06-10 18:56:00,73.0,66.0,29.70,North,-999,-999.0,-999.0,78,0.00,,,1.13,tws,2013-06-10 22:56:00,
2013-06-10 19:01:00,72.7,66.1,29.70,North,-999,-999.0,-999.0,79,0.00,,,1.13,tws,2013-06-10 23:01:00,
2013-06-10 19:11:00,72.0,66.5,29.69,North,-999,-999.0,-999.0,82,0.00,,,1.13,tws,2013-06-10 23:11:00,
2013-06-10 19:16:00,71.7,66.4,29.69,North,-999,-999.0,-999.0,83,0.00,,,1.13,tws,2013-06-10 23:16:00,
2013-06-10 19:21:00,71.5,66.1,29.70,North,-999,-999.0,-999.0,82,0.00,,,1.13,tws,2013-06-10 23:21:00,
2013-06-10 19:26:00,71.3,66.4,29.70,North,-999,-999.0,-999.0,84,0.00,,,1.13,tws,2013-06-10 23:26:00,
2013-06-10 19:31:00,71.2,66.4,29.70,North,-999,-999.0,-999.0,84,0.00,,,1.13,tws,2013-06-10 23:31:00,
2013-06-10 19:41:00,70.8,66.0,29.69,North,-999,-999.0,-999.0,84,0.00,,,1.13,tws,2013-06-10 23:41:00,
2013-06-10 19:46:00,70.6,65.4,29.69,North,-999,-999.0,-999.0,83,0.00,,,1.13,tws,2013-06-10 23:46:00,
2013-06-10 19:52:00,70.3,65.1,29.69,North,-999,-999.0,-999.0,83,0.00,,,1.13,tws,2013-06-10 23:52:00,
2013-06-10 20:01:00,69.9,64.3,29.69,North,-999,-999.0,-999.0,82,0.00,,,1.13,tws,2013-06-11 00:01:00,
2013-06-10 20:06:00,69.6,64.4,29.69,North,-999,-999.0,-999.0,83,0.00,,,1.13,tws,2013-06-11 00:06:00,
2013-06-10 20:16:00,69.0,64.4,29.70,North,-999,-999.0,-999.0,84,0.00,,,1.13,tws,2013-06-11 00:16:00,
2013-06-10 20:21:00,68.7,64.4,29.69,North,-999,-999.0,-999.0,86,0.00,,,1.13,tws,2013-06-11 00:21:00,
2013-06-10 20:26:00,68.4,64.5,29.69,North,-999,-999.0,-999.0,87,0.00,,,1.13,tws,2013-06-11 00:26:00,
2013-06-10 20:31:00,68.1,64.3,29.69,North,-999,-999.0,-999.0,87,0.00,,,1.13,tws,2013-06-11 00:31:00,
2013-06-10 20:41:00,67.4,63.8,29.70,North,-999,-999.0,-999.0,88,0.00,,,1.13,tws,2013-06-11 00:41:00,
2013-06-10 20:51:00,66.7,64.2,29.71,North,-999,-999.0,-999.0,91,0.00,,,1.13,tws,2013-06-11 00:51:00,
2013-06-10 20:56:00,66.4,64.1,29.71,North,-999,-999.0,-999.0,92,0.00,,,1.13,tws,2013-06-11 00:56:00,
2013-06-10 21:07:00,66.1,64.1,29.71,North,-999,-999.0,-999.0,93,0.00,,,1.13,tws,2013-06-11 01:07:00,
2013-06-10 21:12:00,65.8,64.1,29.71,North,-999,-999.0,-999.0,94,0.00,,,1.13,tws,2013-06-11 01:12:00,
2013-06-10 21:21:00,65.5,64.0,29.72,North,-999,-999.0,-999.0,94,0.00,,,1.13,tws,2013-06-11 01:21:00,
2013-06-10 21:26:00,65.3,63.9,29.71,North,-999,-999.0,-999.0,94,0.00,,,1.13,tws,2013-06-11 01:26:00,
2013-06-10 21:31:00,65.1,63.7,29.72,North,-999,-999.0,-999.0,95,0.00,,,1.13,tws,2013-06-11 01:31:00,
2013-06-10 21:36:00,64.8,63.6,29.73,North,-999,-999.0,-999.0,95,0.00,,,1.13,tws,2013-06-11 01:36:00,
2013-06-10 21:46:00,64.6,63.5,29.73,North,-999,-999.0,-999.0,96,0.00,,,1.13,tws,2013-06-11 01:46:00,
2013-06-10 21:51:00,64.4,63.4,29.73,North,-999,-999.0,-999.0,96,0.00,,,1.13,tws,2013-06-11 01:51:00,
2013-06-10 21:56:00,64.3,63.3,29.74,North,-999,-999.0,-999.0,96,0.00,,,1.13,tws,2013-06-11 01:56:00,
2013-06-10 22:06:00,64.1,63.1,29.74,North,-999,-999.0,-999.0,96,0.00,,,1.13,tws,2013-06-11 02:06:00,
2013-06-10 22:11:00,63.9,62.9,29.74,North,-999,-999.0,-999.0,96,0.00,,,1.13,tws,2013-06-11 02:11:00,
2013-06-10 22:16:00,63.7,62.8,29.74,North,-999,-999.0,-999.0,96,0.00,,,1.13,tws,2013-06-11 02:16:00,
2013-06-10 22:21:00,63.6,62.7,29.75,North,-999,-999.0,-999.0,97,0.00,,,1.13,tws,2013-06-11 02:21:00,
2013-06-10 22:26:00,63.5,62.6,29.74,North,-999,-999.0,-999.0,96,0.00,,,1.13,tws,2013-06-11 02:26:00,
2013-06-10 22:31:00,63.3,62.5,29.75,North,-999,-999.0,-999.0,97,0.00,,,1.13,tws,2013-06-11 02:31:00,
2013-06-10 22:36:00,63.1,62.3,29.76,North,-999,-999.0,-999.0,97,0.00,,,1.13,tws,2013-06-11 02:36:00,
2013-06-10 22:41:00,63.0,62.1,29.76,North,-999,-999.0,-999.0,97,0.00,,,1.13,tws,2013-06-11 02:41:00,
2013-06-10 22:46:00,62.9,62.1,29.75,North,-999,-999.0,-999.0,97,0.00,,,1.13,tws,2013-06-11 02:46:00,
2013-06-10 22:56:00,62.8,62.0,29.76,North,-999,-999.0,-999.0,97,0.00,,,1.13,tws,2013-06-11 02:56:00,
2013-06-10 23:06:00,62.5,61.7,29.76,North,-999,-999.0,-999.0,97,0.00,,,1.13,tws,2013-06-11 03:06:00,
2013-06-10 23:11:00,62.4,61.6,29.76,North,-999,-999.0,-999.0,97,0.00,,,1.13,tws,2013-06-11 03:11:00,
2013-06-10 23:16:00,62.2,61.4,29.76,North,-999,-999.0,-999.0,97,0.00,,,1.13,tws,2013-06-11 03:16:00,
2013-06-10 23:21:00,62.1,61.2,29.76,North,-999,-999.0,-999.0,97,0.00,,,1.13,tws,2013-06-11 03:21:00,
2013-06-10 23:32:00,61.7,61.0,29.76,North,-999,-999.0,-999.0,97,0.00,,,1.13,tws,2013-06-11 03:32:00,
2013-06-10 23:41:00,61.6,60.8,29.76,North,-999,-999.0,-999.0,97,0.00,,,1.13,tws,2013-06-11 03:41:00,
2013-06-10 23:46:00,61.6,60.9,29.76,North,-999,-999.0,-999.0,97,0.00,,,1.13,tws,2013-06-11 03:46:00,
2013-06-10 23:56:00,61.6,60.8,29.76,North,-999,-999.0,-999.0,97,0.00,,,1.13,tws,2013-06-11 03:56:00,